Tacoma, WA

11:23 PM PDT on September 27, 2016 (GMT -0700)
McChord Air Force Base

Weather History for KTCM - March, 2013

Change the Weather History Date:

Friday, March 15, 2013

  Actual Average Record
Temperature  
Mean Temperature 53 °F -  
Max Temperature 58 °F 51 °F 63 °F (2010)
Min Temperature 47 °F 35 °F 25 °F (1963)
Degree Days  
Heating Degree Days 12    
Growing Degree Days 3 (Base 50)    
Moisture  
Dew Point 50 °F    
Average Humidity 93    
Maximum Humidity 100    
Minimum Humidity 73    
Precipitation  
Precipitation 0.15 in - - ()
Sea Level Pressure  
Sea Level Pressure 30.19 in    
Wind  
Wind Speed 2 mph (WSW)    
Max Wind Speed 8 mph    
Max Gust Speed -    
Visibility 9 miles    
Events Rain    
Averages and records for this station are not official NWS values.
T = Trace of Precipitation, MM = Missing Value Source: NWS Daily Summary

Daily Weather History Graph

Daily Weather History Graph

Search for Another Location

Airport or City:

Trip Planner

Search our weather history database for the weather conditions in past years. The results will help you decide how hot, cold, wet, or windy it might be!

Date:

Astronomy

Mar. 15, 2013 Rise Set
Actual Time 7:22 AM PDT 7:16 PM PDT
Civil Twilight 6:51 AM PDT 7:46 PM PDT
Nautical Twilight 6:16 AM PDT 8:22 PM PDT
Astronomical Twilight 5:39 AM PDT 8:58 PM PDT
Moon 8:58 AM PDT (3/15) 11:54 PM PDT (3/15)
Length of Visible Light 12h 54m
Length of Day
11h 53m
Waxing Crescent, 16% of the Moon is Illuminated
Mar 15
Waxing Crescent
Mar 19
First Quarter
Mar 27
Full
Apr 2
Last Quarter
Apr 10
New

Hourly Weather History & Observations

Time (PDT) Temp. Dew Point Humidity Pressure Visibility Wind Dir Wind Speed Gust Speed Precip Events Conditions
12:58 AM 50.2 °F 49.1 °F 96% 30.19 in 10.0 mi Calm Calm - N/A   Overcast
1:58 AM 50.0 °F 49.3 °F 97% 30.19 in 10.0 mi Calm Calm - N/A   Overcast
2:50 AM 50.0 °F 50.0 °F 100% 30.19 in 10.0 mi Calm Calm - N/A Rain Light Rain
2:58 AM 49.6 °F 49.3 °F 99% 30.21 in 10.0 mi Calm Calm - 0.00 in Rain Light Rain
3:00 AM 50.0 °F 48.2 °F 94% 30.19 in 10.0 mi Calm Calm - N/A   Overcast
3:19 AM 50.0 °F 48.2 °F 94% 30.19 in 10.0 mi Calm Calm - N/A Rain Light Rain
3:28 AM 50.0 °F 48.2 °F 94% 30.18 in 10.0 mi Calm Calm - N/A   Overcast
3:55 AM 50.0 °F 50.0 °F 100% 30.19 in 10.0 mi WNW 4.6 mph - N/A Rain Light Rain
3:58 AM 50.0 °F 49.6 °F 99% 30.21 in 10.0 mi WNW 3.5 mph - 0.00 in Rain Light Rain
4:08 AM 50.0 °F 50.0 °F 100% 30.18 in 7.0 mi West 2.3 mph - N/A Rain Light Rain
4:34 AM 48.2 °F 48.2 °F 100% 30.18 in 10.0 mi Calm Calm - N/A   Overcast
4:50 AM 50.0 °F 48.2 °F 94% 30.18 in 10.0 mi Calm Calm - N/A   Light Drizzle
4:58 AM 49.1 °F 48.7 °F 99% 30.19 in 7.0 mi Calm Calm - 0.03 in   Light Drizzle
5:03 AM 48.2 °F 48.2 °F 100% 30.17 in 8.0 mi Calm Calm - N/A   Overcast
5:58 AM 48.9 °F 48.7 °F 99% 30.21 in 10.0 mi Calm Calm - 0.01 in   Overcast
6:58 AM 48.9 °F 48.6 °F 99% 30.21 in 10.0 mi Calm Calm - N/A   Overcast
7:58 AM 48.9 °F 48.7 °F 99% 30.22 in 10.0 mi Calm Calm - N/A   Overcast
8:58 AM 51.1 °F 50.9 °F 99% 30.22 in 10.0 mi SW 5.8 mph - N/A   Overcast
9:31 AM 51.8 °F 50.0 °F 94% 30.21 in 10.0 mi WSW 5.8 mph - N/A   Light Drizzle
9:40 AM 51.8 °F 50.0 °F 94% 30.21 in 10.0 mi SW 5.8 mph - N/A   Overcast
9:44 AM 51.8 °F 50.0 °F 94% 30.22 in 10.0 mi WSW 3.5 mph - N/A Rain Light Rain
9:49 AM 51.8 °F 50.0 °F 94% 30.22 in 10.0 mi SW 3.5 mph - N/A Rain Light Rain
9:57 AM 51.8 °F 51.8 °F 100% 30.22 in 10.0 mi WSW 5.8 mph - N/A   Overcast
9:58 AM 51.8 °F 51.8 °F 100% 30.24 in 10.0 mi WSW 5.8 mph - 0.00 in   Overcast
10:08 AM 51.8 °F 51.8 °F 100% 30.22 in 10.0 mi SW 3.5 mph - N/A   Overcast
10:58 AM 54.0 °F 51.1 °F 90% 30.24 in 10.0 mi SSW 5.8 mph - 0.00 in   Mostly Cloudy
11:03 AM 53.6 °F 50.0 °F 88% 30.22 in 10.0 mi Variable 5.8 mph - N/A   Overcast
11:30 AM 55.4 °F 50.0 °F 82% 30.21 in 10.0 mi SSW 5.8 mph - N/A   Overcast
11:36 AM 55.4 °F 50.0 °F 82% 30.21 in 10.0 mi SSW 8.1 mph - N/A   Overcast
11:46 AM 55.4 °F 50.0 °F 82% 30.21 in 10.0 mi SSW 4.6 mph - N/A   Overcast
11:51 AM 55.4 °F 50.0 °F 82% 30.21 in 10.0 mi South 4.6 mph - N/A   Overcast
11:58 AM 55.4 °F 50.0 °F 82% 30.22 in 10.0 mi SSW 3.5 mph - N/A   Overcast
12:30 PM 55.4 °F 50.0 °F 82% 30.22 in 10.0 mi SW 4.6 mph - N/A   Overcast
12:58 PM 56.3 °F 49.3 °F 77% 30.24 in 10.0 mi SW 5.8 mph - N/A   Mostly Cloudy
1:58 PM 56.8 °F 49.8 °F 77% 30.22 in 10.0 mi West 3.5 mph - N/A   Overcast
2:58 PM 58.5 °F 49.8 °F 73% 30.20 in 10.0 mi WSW 3.5 mph - N/A   Overcast
3:03 PM 57.2 °F 50.0 °F 77% 30.19 in 10.0 mi WSW 5.8 mph - N/A   Overcast
3:19 PM 57.2 °F 50.0 °F 77% 30.18 in 10.0 mi SSW 5.8 mph - N/A   Overcast
3:58 PM 57.7 °F 49.8 °F 75% 30.19 in 10.0 mi WSW 6.9 mph - N/A   Mostly Cloudy
4:00 PM 57.2 °F 50.0 °F 77% 30.18 in 10.0 mi West 6.9 mph - N/A Rain Light Rain
4:44 PM 55.4 °F 51.8 °F 88% 30.18 in 10.0 mi NNW 1.2 mph - N/A   Overcast
4:58 PM 55.6 °F 52.3 °F 89% 30.19 in 10.0 mi West 4.6 mph - 0.00 in   Mostly Cloudy
5:01 PM 55.4 °F 51.8 °F 88% 30.18 in 10.0 mi WSW 6.9 mph - N/A Rain Light Rain
5:04 PM 55.4 °F 51.8 °F 88% 30.18 in 4.0 mi SW 6.9 mph - N/A Rain Light Rain
5:09 PM 53.6 °F 51.8 °F 94% 30.18 in 1.8 mi WSW 6.9 mph - N/A Rain Light Rain
5:14 PM 53.6 °F 51.8 °F 94% 30.18 in 1.8 mi West 2.3 mph - N/A Rain Rain
5:19 PM 53.6 °F 51.8 °F 94% 30.18 in 2.5 mi WNW 2.3 mph - N/A Rain Rain
5:25 PM 53.6 °F 51.8 °F 94% 30.18 in 4.0 mi Calm Calm - N/A Rain Light Rain
5:43 PM 53.6 °F 51.8 °F 94% 30.18 in 10.0 mi West 3.5 mph - N/A   Mostly Cloudy
5:58 PM 52.5 °F 51.6 °F 97% 30.20 in 10.0 mi West 5.8 mph - 0.11 in   Mostly Cloudy
6:12 PM 51.8 °F 51.8 °F 100% 30.17 in 10.0 mi West 6.9 mph - N/A   Light Drizzle
6:15 PM 51.8 °F 51.8 °F 100% 30.17 in 10.0 mi West 6.9 mph - N/A   Overcast
6:24 PM 51.8 °F 51.8 °F 100% 30.17 in 10.0 mi West 6.9 mph - N/A   Light Drizzle
6:55 PM 51.8 °F 51.8 °F 100% 30.17 in 10.0 mi WNW 1.2 mph - N/A   Mostly Cloudy
6:58 PM 51.6 °F 51.4 °F 99% 30.19 in 10.0 mi West 2.3 mph - 0.00 in   Mostly Cloudy
7:09 PM 51.8 °F 51.8 °F 100% 30.17 in 10.0 mi West 3.5 mph - N/A Rain Light Rain
7:18 PM 51.8 °F 51.8 °F 100% 30.17 in 10.0 mi WSW 2.3 mph - N/A   Overcast
7:23 PM 51.8 °F 51.8 °F 100% 30.17 in 10.0 mi WSW 2.3 mph - N/A Rain Light Rain
7:35 PM 51.8 °F 51.8 °F 100% 30.16 in 10.0 mi Calm Calm - N/A   Overcast
7:58 PM 51.1 °F 50.9 °F 99% 30.19 in 10.0 mi Calm Calm - 0.00 in   Overcast
8:03 PM 51.8 °F 50.0 °F 94% 30.17 in 10.0 mi Calm Calm - N/A   Overcast
8:08 PM 51.8 °F 50.0 °F 94% 30.17 in 10.0 mi Calm Calm - N/A   Overcast
8:13 PM 51.8 °F 50.0 °F 94% 30.17 in 10.0 mi Calm Calm - N/A   Overcast
8:18 PM 51.8 °F 50.0 °F 94% 30.17 in 10.0 mi North 1.2 mph - N/A   Overcast
8:48 PM 50.0 °F 50.0 °F 100% 30.17 in 10.0 mi West 2.3 mph - N/A   Overcast
8:53 PM 50.0 °F 50.0 °F 100% 30.17 in 10.0 mi West 4.6 mph - N/A   Overcast
8:58 PM 50.0 °F 50.0 °F 100% 30.19 in 10.0 mi West 4.6 mph - N/A   Overcast
9:03 PM 50.0 °F 50.0 °F 100% 30.17 in 10.0 mi West 5.8 mph - N/A   Overcast
9:14 PM 50.0 °F 48.2 °F 94% 30.18 in 10.0 mi WSW 3.5 mph - N/A   Overcast
9:19 PM 50.0 °F 48.2 °F 94% 30.17 in 10.0 mi WNW 1.2 mph - N/A   Overcast
9:29 PM 50.0 °F 48.2 °F 94% 30.17 in 10.0 mi WSW 3.5 mph - N/A   Overcast
9:34 PM 50.0 °F 48.2 °F 94% 30.17 in 10.0 mi SW 2.3 mph - N/A   Overcast
9:40 PM 50.0 °F 48.2 °F 94% 30.17 in 10.0 mi SW 2.3 mph - N/A   Overcast
9:58 PM 49.1 °F 48.7 °F 99% 30.19 in 10.0 mi WSW 2.3 mph - N/A   Overcast
10:58 PM 48.6 °F 48.4 °F 99% 30.18 in 10.0 mi West 3.5 mph - N/A   Overcast
11:58 PM 47.7 °F 47.1 °F 98% 30.18 in 10.0 mi SSW 2.3 mph - N/A   Overcast